| time (UTC) | temp F | wind direction | speed knots | gust knots | rain 1hr in | rain 24hr in | rain mn in | humidity % | barometer mb |
| 20260510223806 | 68 | 213 | 3.5 | 6.1 | 0.00 | 0.00 | 0.00 | 77 | 1016.0 |
| 20260510223303 | 68 | 17 | 1.7 | 5.2 | 0.00 | 0.00 | 0.00 | 76 | 1016.0 |
| 20260510222801 | 69 | 230 | 4.3 | 5.2 | 0.00 | 0.00 | 0.00 | 73 | 1016.0 |
| 20260510222257 | 70 | 268 | 2.6 | 5.2 | 0.00 | 0.00 | 0.00 | 73 | 1016.0 |
| 20260510221752 | 69 | 334 | 0.9 | 5.2 | 0.00 | 0.00 | 0.00 | 75 | 1015.6 |
| 20260510221250 | 68 | 303 | 1.7 | 5.2 | 0.00 | 0.00 | 0.00 | 75 | 1015.6 |
| 20260510220746 | 68 | 165 | 1.7 | 6.1 | 0.00 | 0.00 | 0.00 | 75 | 1016.0 |
| 20260510220242 | 69 | 297 | 3.5 | 6.1 | 0.00 | 0.00 | 0.00 | 74 | 1016.0 |
| 20260510215738 | 69 | 3 | 1.7 | 3.5 | 0.00 | 0.00 | 0.00 | 74 | 1015.6 |
| 20260510215236 | 68 | 234 | 1.7 | 5.2 | 0.00 | 0.00 | 0.00 | 75 | 1016.0 |
| 20260510214733 | 69 | 301 | 3.5 | 5.2 | 0.00 | 0.00 | 0.00 | 74 | 1016.0 |
| 20260510214230 | 70 | 270 | 2.6 | 5.2 | 0.00 | 0.00 | 0.00 | 72 | 1016.0 |
| 20260510213727 | 71 | 253 | 0.9 | 1.7 | 0.00 | 0.00 | 0.00 | 70 | 1016.0 |
| 20260510213223 | 70 | 325 | 1.7 | 2.6 | 0.00 | 0.00 | 0.00 | 72 | 1016.0 |
| 20260510212720 | 69 | 258 | 2.6 | 7.0 | 0.00 | 0.00 | 0.00 | 73 | 1016.0 |
| 20260510212217 | 69 | 339 | 1.7 | 6.1 | 0.00 | 0.00 | 0.00 | 74 | 1016.0 |
| 20260510211714 | 69 | 262 | 2.6 | 3.5 | 0.00 | 0.00 | 0.00 | 74 | 1016.0 |
| 20260510211209 | 70 | 269 | 5.2 | 7.8 | 0.00 | 0.00 | 0.00 | 71 | 1016.0 |
| 20260510210706 | 70 | 89 | 0.9 | 6.1 | 0.00 | 0.00 | 0.00 | 73 | 1016.0 |
| 20260510210200 | 69 | 306 | 3.5 | 5.2 | 0.00 | 0.00 | 0.00 | 72 | 1016.3 |
| 20260510205700 | 69 | 242 | 3.5 | 6.1 | 0.00 | 0.00 | 0.00 | 72 | 1016.0 |
| 20260510205156 | 69 | 194 | 1.7 | 3.5 | 0.00 | 0.00 | 0.00 | 73 | 1016.3 |
| 20260510204652 | 69 | 310 | 2.6 | 5.2 | 0.00 | 0.00 | 0.00 | 73 | 1016.3 |
| 20260510204149 | 68 | 267 | 2.6 | 5.2 | 0.00 | 0.00 | 0.00 | 75 | 1016.3 |
| 20260510203645 | 69 | 229 | 5.2 | 7.0 | 0.00 | 0.00 | 0.00 | 74 | 1016.3 |
| 20260510203142 | 68 | 250 | 1.7 | 5.2 | 0.00 | 0.00 | 0.00 | 75 | 1016.3 |
| 20260510202637 | 68 | 211 | 3.5 | 7.0 | 0.00 | 0.00 | 0.00 | 74 | 1016.3 |
| 20260510202132 | 69 | 286 | 5.2 | 7.0 | 0.00 | 0.00 | 0.00 | 74 | 1016.6 |
| 20260510201630 | 69 | 276 | 4.3 | 6.1 | 0.00 | 0.00 | 0.00 | 73 | 1016.3 |
| 20260510201127 | 69 | 300 | 1.7 | 6.1 | 0.00 | 0.00 | 0.00 | 74 | 1016.3 |
| 20260510200623 | 69 | 280 | 1.7 | 7.0 | 0.00 | 0.00 | 0.00 | 74 | 1016.3 |
| 20260510200121 | 68 | 238 | 4.3 | 6.1 | 0.00 | 0.00 | 0.00 | 75 | 1016.6 |
| 20260510195618 | 68 | 218 | 3.5 | 6.1 | 0.00 | 0.00 | 0.00 | 74 | 1016.3 |
| 20260510195114 | 68 | 213 | 1.7 | 3.5 | 0.00 | 0.00 | 0.00 | 75 | 1016.3 |
| 20260510194613 | 69 | 215 | 2.6 | 7.0 | 0.00 | 0.00 | 0.00 | 74 | 1016.0 |
| 20260510194111 | 69 | 246 | 2.6 | 3.5 | 0.00 | 0.00 | 0.00 | 73 | 1016.3 |
| 20260510193610 | 68 | 339 | 0.0 | 3.5 | 0.00 | 0.00 | 0.00 | 75 | 1016.3 |
| 20260510193107 | 69 | 239 | 4.3 | 6.1 | 0.00 | 0.00 | 0.00 | 73 | 1016.6 |
| 20260510192601 | 69 | 204 | 2.6 | 3.5 | 0.00 | 0.00 | 0.00 | 73 | 1016.6 |
| 20260510192057 | 69 | 247 | 4.3 | 6.1 | 0.00 | 0.00 | 0.00 | 74 | 1016.3 |
| 20260510191554 | 69 | 327 | 1.7 | 5.2 | 0.00 | 0.00 | 0.00 | 73 | 1016.3 |
| 20260510191050 | 69 | 284 | 1.7 | 3.5 | 0.00 | 0.00 | 0.00 | 73 | 1016.3 |
| 20260510190542 | 70 | 179 | 4.3 | 6.1 | 0.00 | 0.00 | 0.00 | 71 | 1016.6 |
| 20260510190040 | 70 | 199 | 3.5 | 5.2 | 0.00 | 0.00 | 0.00 | 71 | 1016.3 |
| 20260510185536 | 71 | 220 | 3.5 | 5.2 | 0.00 | 0.00 | 0.00 | 70 | 1016.3 |
| 20260510185034 | 71 | 195 | 2.6 | 3.5 | 0.00 | 0.00 | 0.00 | 70 | 1016.3 |
| 20260510184531 | 70 | 319 | 1.7 | 3.5 | 0.00 | 0.00 | 0.00 | 73 | 1016.6 |
| 20260510184026 | 70 | 321 | 0.9 | 5.2 | 0.00 | 0.00 | 0.00 | 72 | 1016.6 |
| 20260510183522 | 70 | 309 | 1.7 | 3.5 | 0.00 | 0.00 | 0.00 | 72 | 1016.6 |
| 20260510183017 | 70 | 317 | 2.6 | 5.2 | 0.00 | 0.00 | 0.00 | 73 | 1016.3 |
| 20260510182515 | 71 | 234 | 2.6 | 5.2 | 0.00 | 0.00 | 0.00 | 72 | 1016.3 |
| 20260510182015 | 71 | 253 | 3.5 | 6.1 | 0.00 | 0.00 | 0.00 | 71 | 1016.6 |
| 20260510181513 | 71 | 282 | 2.6 | 5.2 | 0.00 | 0.00 | 0.00 | 70 | 1016.3 |
| 20260510181009 | 71 | 284 | 1.7 | 3.5 | 0.00 | 0.00 | 0.00 | 71 | 1016.3 |
| 20260510180506 | 71 | 149 | 1.7 | 2.6 | 0.00 | 0.00 | 0.00 | 70 | 1016.3 |
| 20260510180004 | 73 | 275 | 5.2 | 6.1 | 0.00 | 0.00 | 0.00 | 68 | 1016.3 |
| 20260510175459 | 72 | 151 | 0.9 | 1.7 | 0.00 | 0.00 | 0.00 | 69 | 1016.0 |
| 20260510174954 | 70 | 352 | 0.9 | 2.6 | 0.00 | 0.00 | 0.00 | 71 | 1016.3 |
| 20260510174453 | 71 | 288 | 1.7 | 3.5 | 0.00 | 0.00 | 0.00 | 70 | 1016.3 |
| 20260510173950 | 71 | 311 | 1.7 | 2.6 | 0.00 | 0.00 | 0.00 | 70 | 1016.0 |
| 20260510173445 | 71 | 178 | 1.7 | 3.5 | 0.00 | 0.00 | 0.00 | 71 | 1016.0 |
| 20260510172942 | 70 | 4 | 0.9 | 1.7 | 0.00 | 0.00 | 0.00 | 71 | 1016.3 |
| 20260510172438 | 71 | 352 | 0.9 | 2.6 | 0.00 | 0.00 | 0.00 | 70 | 1016.0 |
| 20260510171934 | 71 | 245 | 1.7 | 2.6 | 0.00 | 0.00 | 0.00 | 69 | 1016.0 |
| 20260510171431 | 70 | 267 | 0.9 | 1.7 | 0.00 | 0.00 | 0.00 | 72 | 1016.0 |
| 20260510170928 | 69 | 336 | 1.7 | 2.6 | 0.00 | 0.00 | 0.00 | 73 | 1016.0 |
| 20260510170425 | 69 | 295 | 1.7 | 2.6 | 0.00 | 0.00 | 0.00 | 73 | 1016.3 |
| 20260510165920 | 70 | 6 | 0.9 | 2.6 | 0.00 | 0.00 | 0.00 | 73 | 1016.3 |
| 20260510165416 | 70 | 348 | 0.9 | 1.7 | 0.00 | 0.00 | 0.00 | 72 | 1016.0 |
| 20260510164913 | 69 | 68 | 0.0 | 2.6 | 0.00 | 0.00 | 0.00 | 74 | 1016.0 |
| 20260510164410 | 68 | 327 | 0.9 | 2.6 | 0.00 | 0.00 | 0.00 | 75 | 1016.3 |
| 20260510163905 | 67 | 8 | 0.0 | 1.7 | 0.00 | 0.00 | 0.00 | 76 | 1016.3 |
| 20260510163401 | 67 | 318 | 0.9 | 2.6 | 0.00 | 0.00 | 0.00 | 77 | 1016.3 |
| 20260510162855 | 67 | 7 | 0.0 | 0.9 | 0.00 | 0.00 | 0.00 | 77 | 1016.0 |
| 20260510162354 | 67 | 333 | 0.9 | 1.7 | 0.00 | 0.00 | 0.00 | 77 | 1016.0 |
| 20260510161848 | 67 | 342 | 0.9 | 1.7 | 0.00 | 0.00 | 0.00 | 76 | 1016.0 |
| 20260510161344 | 66 | 344 | 0.0 | 0.9 | 0.00 | 0.00 | 0.00 | 79 | 1016.0 |
| 20260510160842 | 66 | 51 | 1.7 | 1.7 | 0.00 | 0.00 | 0.00 | 79 | 1016.0 |
| 20260510160338 | 66 | 352 | 0.9 | 1.7 | 0.00 | 0.00 | 0.00 | 80 | 1016.0 |
| 20260510155832 | 65 | 350 | 0.0 | 0.9 | 0.00 | 0.00 | 0.00 | 82 | 1016.0 |
| 20260510155330 | 65 | 31 | 0.0 | 0.9 | 0.00 | 0.00 | 0.00 | 81 | 1016.0 |
| 20260510154825 | 64 | 6 | 1.7 | 1.7 | 0.00 | 0.00 | 0.00 | 82 | 1016.0 |
| 20260510154322 | 64 | 3 | 0.9 | 0.9 | 0.00 | 0.00 | 0.00 | 83 | 1015.6 |
| 20260510153816 | 64 | 53 | 0.9 | 0.9 | 0.00 | 0.00 | 0.00 | 83 | 1016.0 |
| 20260510153312 | 64 | 59 | 0.0 | 2.6 | 0.00 | 0.00 | 0.00 | 84 | 1015.6 |
| 20260510152809 | 63 | 4 | 0.0 | 1.7 | 0.00 | 0.00 | 0.00 | 84 | 1016.0 |
| 20260510152307 | 63 | 12 | 0.9 | 2.6 | 0.00 | 0.00 | 0.00 | 84 | 1016.0 |
| 20260510151803 | 63 | 20 | 0.0 | 1.7 | 0.00 | 0.00 | 0.00 | 84 | 1016.0 |
| 20260510151300 | 63 | 26 | 0.9 | 1.7 | 0.00 | 0.00 | 0.00 | 85 | 1016.0 |
| 20260510150755 | 63 | 41 | 0.9 | 1.7 | 0.00 | 0.00 | 0.00 | 85 | 1016.0 |
| 20260510150252 | 63 | 347 | 0.0 | 0.0 | 0.00 | 0.00 | 0.00 | 85 | 1016.0 |
| 20260510145748 | 63 | 346 | 0.0 | 0.0 | 0.00 | 0.00 | 0.00 | 86 | 1015.6 |
| 20260510145245 | 62 | 349 | 0.0 | 0.9 | 0.00 | 0.00 | 0.00 | 86 | 1016.0 |
| 20260510144741 | 62 | 17 | 0.9 | 0.9 | 0.00 | 0.00 | 0.00 | 86 | 1016.0 |
| 20260510144238 | 62 | 345 | 0.0 | 0.0 | 0.00 | 0.00 | 0.00 | 87 | 1015.6 |
| 20260510143737 | 62 | 332 | 0.0 | 0.0 | 0.00 | 0.00 | 0.00 | 87 | 1016.0 |
| 20260510143234 | 62 | 346 | 0.0 | 0.9 | 0.00 | 0.00 | 0.00 | 87 | 1015.6 |
| 20260510142731 | 62 | 352 | 0.0 | 0.9 | 0.00 | 0.00 | 0.00 | 87 | 1015.6 |
| 20260510142228 | 62 | 350 | 0.0 | 1.7 | 0.00 | 0.00 | 0.00 | 88 | 1015.6 |
| 20260510141725 | 62 | 343 | 0.0 | 0.9 | 0.00 | 0.00 | 0.00 | 88 | 1015.6 |
| 20260510141223 | 62 | 354 | 0.0 | 0.9 | 0.00 | 0.00 | 0.00 | 88 | 1015.6 |
| 20260510140719 | 62 | 11 | 0.0 | 0.9 | 0.00 | 0.00 | 0.00 | 88 | 1015.3 |
| 20260510140214 | 61 | 356 | 0.0 | 0.9 | 0.00 | 0.00 | 0.00 | 88 | 1015.6 |
| 20260510135709 | 61 | 7 | 0.0 | 0.0 | 0.00 | 0.00 | 0.00 | 89 | 1015.3 |
| 20260510135205 | 61 | 352 | 0.0 | 0.0 | 0.00 | 0.00 | 0.00 | 89 | 1015.3 |
| 20260510134702 | 61 | 16 | 0.0 | 0.0 | 0.00 | 0.00 | 0.00 | 89 | 1015.3 |
| 20260510134159 | 61 | 350 | 0.0 | 0.9 | 0.00 | 0.00 | 0.00 | 89 | 1015.3 |
| 20260510133655 | 61 | 5 | 0.0 | 0.9 | 0.00 | 0.00 | 0.00 | 89 | 1014.9 |
| 20260510133151 | 61 | 357 | 0.0 | 0.0 | 0.00 | 0.00 | 0.00 | 89 | 1015.3 |
| 20260510132647 | 61 | 6 | 0.0 | 0.9 | 0.00 | 0.00 | 0.00 | 89 | 1015.3 |
| 20260510132144 | 61 | 42 | 1.7 | 2.6 | 0.00 | 0.00 | 0.00 | 90 | 1015.3 |
| 20260510131642 | 61 | 22 | 0.9 | 0.9 | 0.00 | 0.00 | 0.00 | 90 | 1015.3 |
| 20260510131139 | 61 | 351 | 0.0 | 0.0 | 0.00 | 0.00 | 0.00 | 90 | 1014.9 |
| 20260510130636 | 61 | 352 | 0.0 | 0.0 | 0.00 | 0.00 | 0.00 | 90 | 1015.3 |
| 20260510130133 | 61 | 11 | 0.9 | 0.9 | 0.00 | 0.00 | 0.00 | 90 | 1014.9 |
| 20260510125629 | 61 | 356 | 0.0 | 0.0 | 0.00 | 0.00 | 0.00 | 91 | 1015.3 |
| 20260510125126 | 61 | 349 | 0.0 | 0.0 | 0.00 | 0.00 | 0.00 | 91 | 1015.3 |
| 20260510124623 | 61 | 351 | 0.0 | 0.0 | 0.00 | 0.00 | 0.00 | 91 | 1015.3 |
| 20260510124120 | 61 | 352 | 0.0 | 0.0 | 0.00 | 0.00 | 0.00 | 91 | 1015.3 |
| 20260510123615 | 61 | 351 | 0.0 | 0.0 | 0.00 | 0.00 | 0.00 | 91 | 1015.3 |
| 20260510123111 | 61 | 351 | 0.0 | 0.0 | 0.00 | 0.00 | 0.00 | 91 | 1015.3 |
| 20260510122607 | 60 | 351 | 0.0 | 0.0 | 0.00 | 0.00 | 0.00 | 91 | 1015.3 |
| 20260510122103 | 60 | 350 | 0.0 | 0.0 | 0.00 | 0.00 | 0.00 | 91 | 1015.3 |
| 20260510121600 | 60 | 351 | 0.0 | 0.0 | 0.00 | 0.00 | 0.00 | 91 | 1015.3 |
| 20260510121057 | 60 | 351 | 0.0 | 0.0 | 0.00 | 0.00 | 0.00 | 92 | 1015.3 |
| 20260510120555 | 60 | 351 | 0.0 | 0.0 | 0.00 | 0.00 | 0.00 | 92 | 1014.9 |
| 20260510120050 | 60 | 352 | 0.0 | 0.0 | 0.00 | 0.00 | 0.00 | 92 | 1014.9 |
| 20260510115547 | 60 | 352 | 0.0 | 0.0 | 0.00 | 0.00 | 0.00 | 92 | 1014.9 |
| 20260510115044 | 60 | 12 | 0.9 | 0.9 | 0.00 | 0.00 | 0.00 | 92 | 1015.3 |
| 20260510114540 | 60 | 29 | 1.7 | 1.7 | 0.00 | 0.00 | 0.00 | 92 | 1014.9 |
| 20260510114036 | 60 | 354 | 0.0 | 0.0 | 0.00 | 0.00 | 0.00 | 92 | 1015.3 |
| 20260510113531 | 60 | 351 | 0.0 | 0.0 | 0.00 | 0.00 | 0.00 | 92 | 1015.3 |
| 20260510113029 | 60 | 351 | 0.0 | 0.0 | 0.00 | 0.00 | 0.00 | 93 | 1015.3 |
| 20260510112526 | 60 | 353 | 0.0 | 0.0 | 0.00 | 0.00 | 0.00 | 93 | 1014.9 |
| 20260510112022 | 60 | 352 | 0.0 | 0.0 | 0.00 | 0.00 | 0.00 | 93 | 1015.3 |
| 20260510111519 | 60 | 347 | 0.0 | 0.0 | 0.00 | 0.00 | 0.00 | 93 | 1014.9 |
| 20260510111015 | 60 | 349 | 0.0 | 0.0 | 0.00 | 0.00 | 0.00 | 93 | 1014.9 |
| 20260510110511 | 60 | 352 | 0.0 | 0.0 | 0.00 | 0.00 | 0.00 | 93 | 1015.3 |
| 20260510110008 | 60 | 26 | 0.9 | 1.7 | 0.00 | 0.00 | 0.00 | 93 | 1015.3 |
| 20260510105502 | 60 | 352 | 0.0 | 0.0 | 0.00 | 0.00 | 0.00 | 93 | 1014.9 |
| 20260510104958 | 60 | 350 | 0.0 | 0.0 | 0.00 | 0.00 | 0.00 | 93 | 1014.9 |
| 20260510104455 | 60 | 348 | 0.0 | 0.0 | 0.00 | 0.00 | 0.00 | 93 | 1014.9 |
| 20260510103951 | 60 | 350 | 0.0 | 0.0 | 0.00 | 0.00 | 0.00 | 93 | 1015.3 |
| 20260510103449 | 60 | 8 | 0.0 | 0.9 | 0.00 | 0.00 | 0.00 | 93 | 1014.9 |
| 20260510102944 | 59 | 4 | 0.0 | 0.9 | 0.00 | 0.00 | 0.00 | 93 | 1014.9 |
| 20260510102440 | 59 | 349 | 0.0 | 0.0 | 0.00 | 0.00 | 0.00 | 93 | 1014.9 |
| 20260510101937 | 59 | 347 | 0.0 | 0.0 | 0.00 | 0.00 | 0.00 | 93 | 1014.9 |
| 20260510101434 | 59 | 347 | 0.0 | 0.0 | 0.00 | 0.00 | 0.00 | 93 | 1014.9 |
| 20260510100933 | 59 | 340 | 0.0 | 0.0 | 0.00 | 0.00 | 0.00 | 93 | 1014.9 |
| 20260510100429 | 59 | 341 | 0.0 | 0.0 | 0.00 | 0.00 | 0.00 | 93 | 1015.3 |
| 20260510095925 | 59 | 338 | 0.0 | 0.0 | 0.00 | 0.00 | 0.00 | 93 | 1015.3 |
| 20260510095421 | 59 | 343 | 0.0 | 0.0 | 0.00 | 0.00 | 0.00 | 94 | 1015.3 |
| 20260510094920 | 59 | 336 | 0.0 | 0.0 | 0.00 | 0.00 | 0.00 | 94 | 1015.3 |
| 20260510094414 | 59 | 340 | 0.0 | 0.0 | 0.00 | 0.00 | 0.00 | 94 | 1015.3 |
| 20260510093911 | 59 | 322 | 0.9 | 1.7 | 0.00 | 0.00 | 0.00 | 94 | 1015.3 |
| 20260510093407 | 59 | 3 | 0.0 | 0.0 | 0.00 | 0.00 | 0.00 | 94 | 1015.3 |
| 20260510092904 | 59 | 27 | 0.0 | 0.0 | 0.00 | 0.00 | 0.00 | 94 | 1015.3 |
| 20260510092401 | 59 | 28 | 0.0 | 0.0 | 0.00 | 0.00 | 0.00 | 94 | 1015.3 |
| 20260510091855 | 59 | 27 | 0.0 | 0.0 | 0.00 | 0.00 | 0.00 | 94 | 1015.3 |
| 20260510091353 | 59 | 27 | 0.0 | 0.0 | 0.00 | 0.00 | 0.00 | 94 | 1015.3 |
| 20260510090849 | 59 | 27 | 0.0 | 0.0 | 0.00 | 0.00 | 0.00 | 94 | 1015.3 |
| 20260510090346 | 59 | 27 | 0.0 | 0.0 | 0.00 | 0.00 | 0.00 | 95 | 1015.6 |
| 20260510085841 | 59 | 29 | 0.0 | 0.0 | 0.00 | 0.00 | 0.00 | 95 | 1015.3 |
| 20260510085336 | 59 | 30 | 0.0 | 0.9 | 0.00 | 0.00 | 0.00 | 95 | 1015.6 |
| 20260510084832 | 59 | 6 | 0.0 | 0.0 | 0.00 | 0.00 | 0.00 | 95 | 1015.3 |
| 20260510084330 | 59 | 346 | 0.0 | 0.0 | 0.00 | 0.00 | 0.00 | 95 | 1015.3 |
| 20260510083826 | 59 | 350 | 0.0 | 0.0 | 0.00 | 0.00 | 0.00 | 95 | 1015.3 |
| 20260510083323 | 59 | 346 | 0.0 | 0.0 | 0.00 | 0.00 | 0.00 | 95 | 1015.3 |
| 20260510082818 | 59 | 341 | 0.0 | 0.0 | 0.00 | 0.00 | 0.00 | 95 | 1015.3 |
| 20260510082316 | 58 | 345 | 0.0 | 0.0 | 0.00 | 0.00 | 0.00 | 95 | 1015.3 |
| 20260510081815 | 58 | 28 | 0.9 | 0.9 | 0.00 | 0.00 | 0.00 | 95 | 1015.6 |
| 20260510081311 | 59 | 341 | 0.0 | 0.0 | 0.00 | 0.00 | 0.00 | 95 | 1016.0 |
| 20260510080807 | 58 | 346 | 0.0 | 0.0 | 0.00 | 0.00 | 0.00 | 95 | 1015.6 |
| 20260510080302 | 58 | 348 | 0.0 | 0.0 | 0.00 | 0.00 | 0.00 | 95 | 1015.6 |
| 20260510075759 | 58 | 348 | 0.0 | 0.0 | 0.00 | 0.00 | 0.00 | 95 | 1016.0 |
| 20260510075256 | 58 | 342 | 0.0 | 0.0 | 0.00 | 0.00 | 0.00 | 95 | 1016.0 |
| 20260510074753 | 58 | 345 | 0.0 | 0.0 | 0.00 | 0.00 | 0.00 | 95 | 1015.6 |
| 20260510074250 | 58 | 330 | 0.0 | 0.0 | 0.00 | 0.00 | 0.00 | 95 | 1016.0 |
| 20260510073746 | 58 | 295 | 0.0 | 0.0 | 0.00 | 0.00 | 0.00 | 95 | 1016.0 |
| 20260510073242 | 58 | 348 | 0.0 | 0.0 | 0.00 | 0.00 | 0.00 | 95 | 1016.0 |
| 20260510072737 | 58 | 342 | 0.0 | 0.9 | 0.00 | 0.00 | 0.00 | 95 | 1016.0 |
| 20260510072235 | 58 | 343 | 0.0 | 0.0 | 0.00 | 0.00 | 0.00 | 95 | 1016.0 |
| 20260510071731 | 58 | 4 | 0.0 | 0.0 | 0.00 | 0.00 | 0.00 | 95 | 1016.0 |
| 20260510071228 | 58 | 339 | 0.0 | 0.0 | 0.00 | 0.00 | 0.00 | 95 | 1016.3 |
| 20260510070726 | 58 | 334 | 0.0 | 1.7 | 0.00 | 0.00 | 0.00 | 95 | 1016.0 |
| 20260510070223 | 58 | 249 | 1.7 | 2.6 | 0.00 | 0.00 | 0.00 | 95 | 1016.0 |
| 20260510065718 | 58 | 359 | 0.0 | 0.9 | 0.00 | 0.00 | 0.00 | 95 | 1015.6 |
| 20260510065214 | 58 | 343 | 0.0 | 0.9 | 0.00 | 0.00 | 0.00 | 95 | 1015.6 |
| 20260510064711 | 58 | 32 | 0.0 | 0.9 | 0.00 | 0.00 | 0.00 | 95 | 1016.0 |
| 20260510064209 | 58 | 356 | 1.7 | 1.7 | 0.00 | 0.00 | 0.00 | 95 | 1016.0 |
| 20260510063705 | 58 | 347 | 0.0 | 0.9 | 0.00 | 0.00 | 0.00 | 95 | 1016.0 |
| 20260510063201 | 58 | 339 | 0.0 | 0.0 | 0.00 | 0.00 | 0.00 | 95 | 1016.0 |
| 20260510062658 | 58 | 340 | 0.0 | 0.0 | 0.00 | 0.00 | 0.00 | 95 | 1016.0 |
| 20260510062154 | 58 | 315 | 0.0 | 0.9 | 0.00 | 0.00 | 0.00 | 95 | 1015.6 |
| 20260510061649 | 58 | 338 | 0.9 | 0.9 | 0.00 | 0.00 | 0.00 | 95 | 1016.0 |
| 20260510061147 | 58 | 344 | 0.0 | 0.0 | 0.00 | 0.00 | 0.00 | 95 | 1016.0 |
| 20260510060643 | 58 | 356 | 0.0 | 0.9 | 0.00 | 0.00 | 0.00 | 95 | 1016.0 |
| 20260510060139 | 58 | 10 | 0.0 | 0.0 | 0.00 | 0.00 | 0.00 | 95 | 1016.0 |
| 20260510055636 | 58 | 356 | 0.0 | 0.0 | 0.00 | 0.00 | 0.00 | 95 | 1016.0 |
| 20260510055134 | 58 | 340 | 0.0 | 0.0 | 0.00 | 0.00 | 0.00 | 95 | 1016.0 |
| 20260510054629 | 58 | 349 | 0.0 | 0.0 | 0.00 | 0.00 | 0.00 | 95 | 1016.0 |
| 20260510054125 | 58 | 339 | 0.0 | 0.9 | 0.00 | 0.00 | 0.00 | 95 | 1016.0 |
| 20260510053625 | 58 | 341 | 0.0 | 0.9 | 0.00 | 0.00 | 0.00 | 94 | 1016.0 |
| 20260510053121 | 58 | 328 | 0.0 | 0.0 | 0.00 | 0.00 | 0.00 | 94 | 1016.0 |
| 20260510052617 | 58 | 338 | 0.0 | 0.9 | 0.00 | 0.00 | 0.00 | 94 | 1016.0 |
| 20260510052114 | 58 | 341 | 0.0 | 0.0 | 0.00 | 0.00 | 0.00 | 94 | 1016.0 |
| 20260510051609 | 58 | 328 | 0.0 | 0.0 | 0.00 | 0.00 | 0.00 | 94 | 1016.0 |
| 20260510051107 | 58 | 343 | 0.0 | 0.9 | 0.00 | 0.00 | 0.00 | 94 | 1016.0 |
| 20260510050604 | 58 | 351 | 0.0 | 0.9 | 0.00 | 0.00 | 0.00 | 94 | 1016.0 |
| 20260510050101 | 58 | 344 | 0.0 | 1.7 | 0.00 | 0.00 | 0.00 | 94 | 1016.0 |
| 20260510045558 | 58 | 329 | 0.0 | 1.7 | 0.00 | 0.00 | 0.00 | 94 | 1016.0 |
| 20260510045053 | 58 | 339 | 0.0 | 1.7 | 0.00 | 0.00 | 0.00 | 94 | 1016.0 |
| 20260510044550 | 59 | 334 | 0.0 | 2.6 | 0.00 | 0.00 | 0.00 | 94 | 1016.0 |
| 20260510044048 | 59 | 314 | 0.0 | 0.0 | 0.00 | 0.00 | 0.00 | 94 | 1016.0 |
| 20260510043543 | 59 | 340 | 0.0 | 0.0 | 0.00 | 0.00 | 0.00 | 94 | 1016.0 |
| 20260510043039 | 59 | 334 | 0.0 | 0.0 | 0.00 | 0.00 | 0.00 | 94 | 1016.0 |
| 20260510042533 | 59 | 330 | 0.0 | 1.7 | 0.00 | 0.00 | 0.00 | 94 | 1015.6 |
| 20260510042028 | 59 | 334 | 0.0 | 0.9 | 0.00 | 0.00 | 0.00 | 94 | 1016.0 |
| 20260510041526 | 59 | 329 | 0.0 | 0.0 | 0.00 | 0.00 | 0.00 | 94 | 1015.6 |
| 20260510041023 | 59 | 276 | 0.0 | 0.0 | 0.00 | 0.00 | 0.00 | 94 | 1015.6 |
| 20260510040519 | 59 | 189 | 0.0 | 0.0 | 0.00 | 0.00 | 0.00 | 94 | 1015.6 |
| 20260510040015 | 59 | 334 | 0.9 | 2.6 | 0.00 | 0.00 | 0.00 | 94 | 1015.6 |
| 20260510035512 | 58 | 338 | 0.0 | 0.9 | 0.00 | 0.00 | 0.00 | 94 | 1015.3 |
| 20260510035011 | 58 | 270 | 0.9 | 2.6 | 0.00 | 0.00 | 0.00 | 94 | 1015.3 |
| 20260510034510 | 58 | 317 | 0.9 | 1.7 | 0.00 | 0.00 | 0.00 | 94 | 1015.3 |
| 20260510034006 | 59 | 266 | 1.7 | 2.6 | 0.00 | 0.00 | 0.00 | 93 | 1014.9 |
| 20260510033502 | 59 | 336 | 0.0 | 1.7 | 0.00 | 0.00 | 0.00 | 93 | 1014.9 |
| 20260510033000 | 59 | 326 | 1.7 | 2.6 | 0.00 | 0.00 | 0.00 | 93 | 1015.3 |
| 20260510032457 | 59 | 195 | 3.5 | 5.2 | 0.00 | 0.00 | 0.00 | 93 | 1015.3 |
| 20260510031951 | 59 | 293 | 0.9 | 1.7 | 0.00 | 0.00 | 0.00 | 93 | 1015.3 |
| 20260510031447 | 59 | 264 | 0.9 | 1.7 | 0.00 | 0.00 | 0.00 | 92 | 1014.9 |
| 20260510030943 | 60 | 295 | 2.6 | 3.5 | 0.00 | 0.00 | 0.00 | 92 | 1014.9 |
| 20260510030438 | 60 | 308 | 0.9 | 1.7 | 0.00 | 0.00 | 0.00 | 92 | 1014.9 |
| 20260510025936 | 60 | 340 | 0.0 | 1.7 | 0.00 | 0.00 | 0.00 | 92 | 1014.6 |
| 20260510025433 | 60 | 339 | 0.9 | 2.6 | 0.00 | 0.00 | 0.00 | 92 | 1014.6 |
| 20260510024931 | 60 | 292 | 0.0 | 0.0 | 0.00 | 0.00 | 0.00 | 92 | 1014.6 |
| 20260510024427 | 60 | 342 | 0.0 | 1.7 | 0.00 | 0.00 | 0.00 | 92 | 1014.6 |
| 20260510023923 | 60 | 267 | 0.9 | 2.6 | 0.00 | 0.00 | 0.00 | 92 | 1014.6 |
| 20260510023419 | 60 | 294 | 1.7 | 2.6 | 0.00 | 0.00 | 0.00 | 91 | 1014.6 |
| 20260510022917 | 60 | 325 | 0.9 | 2.6 | 0.00 | 0.00 | 0.00 | 91 | 1014.6 |
| 20260510022415 | 60 | 304 | 0.9 | 1.7 | 0.00 | 0.00 | 0.00 | 91 | 1014.6 |
| 20260510021914 | 60 | 278 | 0.9 | 1.7 | 0.00 | 0.00 | 0.00 | 91 | 1014.6 |
| 20260510021413 | 60 | 338 | 0.0 | 1.7 | 0.00 | 0.00 | 0.00 | 91 | 1014.3 |
| 20260510020909 | 60 | 286 | 0.9 | 1.7 | 0.00 | 0.00 | 0.00 | 90 | 1014.3 |
| 20260510020404 | 61 | 254 | 1.7 | 3.5 | 0.00 | 0.00 | 0.00 | 89 | 1014.3 |
| 20260510015900 | 61 | 338 | 1.7 | 2.6 | 0.00 | 0.00 | 0.00 | 89 | 1014.3 |
| 20260510015355 | 61 | 231 | 1.7 | 1.7 | 0.00 | 0.00 | 0.00 | 89 | 1014.3 |
| 20260510014851 | 61 | 255 | 2.6 | 3.5 | 0.00 | 0.00 | 0.00 | 89 | 1014.3 |
| 20260510014348 | 61 | 324 | 0.0 | 2.6 | 0.00 | 0.00 | 0.00 | 89 | 1014.3 |
| 20260510013844 | 61 | 309 | 1.7 | 5.2 | 0.00 | 0.00 | 0.00 | 89 | 1014.3 |
| 20260510013340 | 61 | 250 | 1.7 | 6.1 | 0.00 | 0.00 | 0.00 | 89 | 1014.6 |
| 20260510012836 | 62 | 255 | 1.7 | 3.5 | 0.00 | 0.00 | 0.00 | 88 | 1014.3 |
| 20260510012335 | 62 | 209 | 2.6 | 3.5 | 0.00 | 0.00 | 0.00 | 88 | 1014.3 |
| 20260510011831 | 62 | 235 | 2.6 | 2.6 | 0.00 | 0.00 | 0.00 | 87 | 1014.3 |
| 20260510011326 | 62 | 336 | 0.9 | 3.5 | 0.00 | 0.00 | 0.00 | 87 | 1014.3 |
| 20260510010823 | 62 | 218 | 2.6 | 3.5 | 0.00 | 0.00 | 0.00 | 87 | 1014.3 |
| 20260510010320 | 62 | 288 | 1.7 | 2.6 | 0.00 | 0.00 | 0.00 | 87 | 1014.3 |
| 20260510005817 | 62 | 288 | 0.9 | 3.5 | 0.00 | 0.00 | 0.00 | 87 | 1014.3 |
| 20260510005313 | 63 | 291 | 0.9 | 2.6 | 0.00 | 0.00 | 0.00 | 87 | 1014.3 |
| 20260510004811 | 62 | 339 | 0.9 | 3.5 | 0.00 | 0.00 | 0.00 | 87 | 1013.9 |
| 20260510004308 | 63 | 277 | 3.5 | 6.1 | 0.00 | 0.00 | 0.00 | 87 | 1014.3 |
| 20260510003805 | 63 | 267 | 3.5 | 5.2 | 0.00 | 0.00 | 0.00 | 86 | 1014.3 |
| 20260510003302 | 63 | 266 | 3.5 | 5.2 | 0.00 | 0.00 | 0.00 | 85 | 1014.3 |
| 20260510002801 | 63 | 239 | 3.5 | 6.1 | 0.00 | 0.00 | 0.00 | 85 | 1014.3 |
| 20260510002259 | 64 | 298 | 0.9 | 5.2 | 0.00 | 0.00 | 0.00 | 84 | 1014.3 |
| 20260510001755 | 64 | 280 | 3.5 | 5.2 | 0.00 | 0.00 | 0.00 | 83 | 1014.6 |
| 20260510001253 | 64 | 346 | 2.6 | 5.2 | 0.00 | 0.00 | 0.00 | 83 | 1014.3 |
| 20260510000748 | 64 | 303 | 0.9 | 3.5 | 0.00 | 0.00 | 0.00 | 84 | 1014.3 |
| 20260510000248 | 64 | 282 | 1.7 | 6.1 | 0.00 | 0.00 | 0.00 | 84 | 1014.3 |
| 20260509235744 | 65 | 236 | 2.6 | 5.2 | 0.00 | 0.00 | 0.00 | 83 | 1014.3 |
| 20260509235240 | 65 | 354 | 0.9 | 5.2 | 0.00 | 0.00 | 0.00 | 83 | 1014.3 |
| 20260509234735 | 65 | 305 | 2.6 | 5.2 | 0.00 | 0.00 | 0.00 | 83 | 1014.3 |
| 20260509234233 | 65 | 355 | 1.7 | 3.5 | 0.00 | 0.00 | 0.00 | 83 | 1014.3 |
| 20260509233731 | 66 | 292 | 3.5 | 6.1 | 0.00 | 0.00 | 0.00 | 81 | 1014.3 |
| 20260509233228 | 66 | 302 | 2.6 | 6.1 | 0.00 | 0.00 | 0.00 | 80 | 1014.3 |
| 20260509232724 | 66 | 291 | 0.9 | 5.2 | 0.00 | 0.00 | 0.00 | 80 | 1014.3 |
| 20260509232221 | 66 | 278 | 1.7 | 2.6 | 0.00 | 0.00 | 0.00 | 80 | 1014.3 |
| 20260509231718 | 66 | 245 | 2.6 | 6.1 | 0.00 | 0.00 | 0.00 | 80 | 1014.3 |
| 20260509231215 | 66 | 217 | 4.3 | 6.1 | 0.00 | 0.00 | 0.00 | 79 | 1014.3 |
| 20260509230713 | 67 | 286 | 4.3 | 6.1 | 0.00 | 0.00 | 0.00 | 78 | 1014.3 |
| 20260509230209 | 66 | 98 | 0.9 | 6.1 | 0.00 | 0.00 | 0.00 | 80 | 1014.3 |
| 20260509225705 | 68 | 180 | 3.5 | 5.2 | 0.00 | 0.00 | 0.00 | 76 | 1014.3 |
| 20260509225201 | 68 | 240 | 2.6 | 6.1 | 0.00 | 0.00 | 0.00 | 76 | 1014.3 |
| 20260509224656 | 69 | 284 | 2.6 | 6.1 | 0.00 | 0.00 | 0.00 | 74 | 1014.6 |